Terminal Aerodrome Forecast
Issued by NWS Grand Junction, CO

Home | Current Version | Previous Version | Text Only | Print | Product List | Glossary On
Versions: 1 2 3 4 5 6 7 8 9 10 11 12 13 14 15 16 17 18 19 20 21 22 23 24 25 26 27 28 29 30 31 32 33 34 35 36 37 38 39 40 41 42 43 44 45 46 47 48 49 50
000
FTUS45 KGJT 241736
TAFGJT
TAF
KGJT 241736Z 2418/2518 VRB05KT P6SM VCTS SCT030 BKN100CB OVC150
      TEMPO 2420/2424 VRB15G25KT -SHRA BKN060
     FM250200 10006KT P6SM BKN080
     FM251400 VRB03KT P6SM OVC070=

USA.gov is the U.S. government's official web portal to all federal, state and local government web resources and services.